Location: Unspecified
(44.0704°N, 88.6889°W)
Time: 12:18:12
(UTC+02:00)

Altair - Pass Details

Date: 18 June 2019
Orbit: 1501 x 1683 km, 47.2° (Epoch: 17 July)

Event Time Altitude Azimuth Distance (km) Brightness Sun altitude
Rises 06:28:05 0° 257° (WSW) 4,758 10.2 -19.6°
Reaches altitude 10° 06:31:07 10° 259° (WSW) 3,799 9.7 -19.8°
Maximum altitude 06:40:54 81° 347° (NNW) 1,660 7.7 -20.4°
Drops below altitude 10° 06:51:02 10° 75° (ENE) 3,930 9.6 -20.9°
Sets 06:54:14 0° 77° (ENE) 4,929 10.1 -21.1°
